Regional Weather Roundup
Issued by NWS

Home | Current Version | Previous Version | Graphics & Text | Print | Product List | Glossary On
Versions: 1 2 3 4 5 6 7 8 9 10 11 12 13 14 15 16 17 18 19 20 21 22 23 24 25 26 27 28 29 30 31 32 33 34 35 36 37 38 39 40 41 42 43 44 45 46 47 48 49 50
500
ASUS45 KBOU 280507
RWRCO

WEATHER ROUNDUP FOR COLORADO
NATIONAL WEATHER SERVICE DENVER/BOULDER CO
1100 PM MDT THU APR 27 2017

NOTE: "FAIR" INDICATES FEW OR NO CLOUDS BELOW 12000 FEET WITH NO
SIGNIFICANT WEATHER AND/OR OBSTRUCTIONS TO VISIBILITY.

COZ001>005-013-030-031-280600-
...NORTHWEST COLORADO...

CITY           SKY/WX    TMP DP  RH WIND       PRES   REMARKS
CRAIG          MOCLDY    34  25  69 SW10      29.78R WCI  26
HAYDEN         FAIR      32  23  69 W8        29.77R WCI  25
MEEKER         FAIR      31  27  85 W3        29.79S
MOUNT WERNER   NOT AVBL
STEAMBOAT SPGS CLOUDY    32  26  78 W3        29.76S
WALDEN           N/A     27  23  86 SW7       29.73F WCI  19
$$

COZ006>008-011-280600-
...WEST CENTRAL VALLEYS...

CITY           SKY/WX    TMP DP  RH WIND       PRES   REMARKS
GRAND JUNCTION FAIR      43  27  53 N8        29.76R
MONTROSE       FAIR      41  19  41 CALM      29.79S
EAGLE          CLOUDY    35  24  64 W5        29.79S WCI  31
RIFLE          FAIR      36  29  75 CALM      29.79R
DELTA          FAIR      45  20  37 N6        29.76S
NUCLA          FAIR      41  10  28 CALM      29.80S
$$

COZ017>023-064>068-280600-
...SOUTHWEST COLORADO...

CITY           SKY/WX    TMP DP  RH WIND       PRES   REMARKS
DURANGO        MOCLDY    42   9  25 NW7       29.76R
CORTEZ         CLOUDY    43  19  38 NW7       29.78R
PAGOSA SPRINGS MOCLDY    34  17  50 SW3       29.75S
TELLURIDE      FAIR      31   5  32 W6        29.83F WCI  26
WOLF CREEK PAS FAIR      18  -4  38 W6        29.85F WCI   9
$$

COZ009-010-012-014-032>034-037-058>063-280600-
...CENTRAL COLORADO...

CITY           SKY/WX    TMP DP  RH WIND       PRES   REMARKS
ASPEN          LGT SNOW  29  27  92 CALM      29.78R FOG
BUENA VISTA    MOCLDY    30  24  78 NW12G18   29.75S WCI  20
COPPER MTN     CLOUDY    19  14  79 MISG      29.76R
BERTHOUD PASS  CLOUDY    10   0  61 NW25G39   29.70S WCI -10
COTTONWOOD PAS LGT SNOW  30  19  64 NW7       29.74F WCI  23
GUNNISON       FAIR      33  21  61 N7        29.78S WCI  27
KREMMLING      MOCLDY    36  23  60 NW7       29.78R
LEADVILLE      LGT SNOW  20  17  88 N3        29.75R VSB 3/4
MONARCH PASS     N/A     18  12  79 W36G44    29.87F WCI  -3
SALIDA         FAIR      35  22  59 NW14      29.82S WCI  26
SUNLIGHT       CLOUDY    18  18 100 W6        29.82S FOG     WCI   9
WILKERSON PASS FAIR      18  14  86 W9G16     29.75S WCI   6
$$

COZ069>075-280600-
...SAN LUIS VALLEY/SANGRE DE CRISTO MOUNTAINS...

CITY           SKY/WX    TMP DP  RH WIND       PRES   REMARKS
ALAMOSA        FAIR      35  13  40 N13G23    29.73S WCI  26
LA VETA PASS   FAIR      27  10  50 W7G18     29.85F WCI  19
SAGUACHE       FAIR      32  19  59 N12       29.76S WCI  23
$$

COZ035-036-038>040-280600-
...NORTHERN COLORADO FRONT RANGE...

CITY           SKY/WX    TMP DP  RH WIND       PRES   REMARKS
DENVER INTL AP MOCLDY    36  31  82 SE7       29.64F
DMNS CITY PARK   N/A     45  17  33 W5G15     29.65S
AURORA         MOCLDY    39  31  72 W10       29.65S
FRONT RANGE AP NOT AVBL
ERIE MUNI ARPT FAIR      38  33  80 CALM      29.64S
BOULDER MUN AP FAIR      45  18  33 W15       29.63S
CENTENNIAL     FAIR      43  17  35 NW16      29.65S
BROOMFIELD     NOT AVBL
FORT COLLINS   FAIR      41  36  82 SE10      29.65R
LONGMONT       FAIR      39  35  84 CALM      29.66S
$$

COZ041-046-047-076>085-087-088-280600-
...PIKES PEAK/PALMER DIVIDE AND SOUTHERN FOOTHILLS...

CITY           SKY/WX    TMP DP  RH WIND       PRES   REMARKS
COLO. SPRINGS  FAIR      41  28  60 N10       29.68R
A. F. ACADEMY  FAIR      34  33  97 N6        29.68R WCI  29
SCHRIEVER AFB  FAIR      39  28  63 NW14      29.68R
ELLICOTT       FAIR     N/A N/A N/A N12       29.66R
FALCON         FAIR      36  28  74 W6        29.69S
FORT CARSON    FAIR      39  32  77 NW7       29.66S
LIMON          CLOUDY    37  35  92 NW8       29.66R
MONUMENT HILL  FAIR      32  28  86 CALM      29.69S
TRINIDAD       FAIR      43  35  73 CALM      29.68R
$$

COZ042>045-048>051-090-091-280600-
...NORTHEAST COLORADO...

CITY           SKY/WX    TMP DP  RH WIND       PRES   REMARKS
GREELEY ARPT   FAIR      38  36  92 E3        29.66R
AKRON          MOCLDY    38  36  92 W7        29.62F
BURLINGTON     NOT AVBL
WRAY           NOT AVBL
STERLING       MOCLDY    37  37 100 CALM      29.63R
HOLYOKE        RAIN      37  36  93 NE8       29.66F
FORT MORGAN    FAIR      37  35  95 NW3       29.66R
$$

COZ086-089-092>099-280600-
...SOUTHEAST COLORADO...

CITY           SKY/WX    TMP DP  RH WIND       PRES   REMARKS
PUEBLO         FAIR      42  35  76 W8        29.65R
LA JUNTA       FAIR      44  39  82 SE6       29.65R
LAMAR          FAIR      44  39  82 N9        29.61R
SPRINGFIELD      N/A     43  40  89 N10       29.60R
$$




USA.gov is the U.S. government's official web portal to all federal, state and local government web resources and services.